User: anonymous   Login
Location: Ottawa
(45.4170°N, 75.7000°W)
Time: 03:04:17
(UTC-04:00)
Language:

Aureole 3 Rocket - Orbit

View from above orbital plane
View from above orbital plane
View from above satellite
View from above satellite

Ground track
Ground track

The orbit data is extracted from the following two-line orbital elements,

1 12849U 81094B   17118.91004500 +.00000645 +00000-0 +57918-4 0  9992
2 12849 082.4951 204.5502 0903429 187.4472 171.2466 13.50108487735293
Epoch (UTC): 28 April 2017 21:50:27
Eccentricity: 0.0903429
inclination: 82.4951°
perigee height: 399 km
apogee height: 1745 km
right ascension of ascending node: 204.5502°
argument of perigee: 187.4472°
revolutions per day: 13.50108487
mean anomaly at epoch: 171.2466°
orbit number at epoch: 73529

The dashed part of the orbit path shows where the satellite is in the earth's shadow,  

DLR